(92157) = 1999 XC141 = 2001 BU23

Discovered at Kitt Peak on 1999-12-03 by Spacewatch.

Orbit

Orbit type: Main Belt

Note: WebGL enabled browser required.

epoch2023-09-13.0
epoch JD2460200.5
perihelion date2019-02-16.53996
perihelion JD2458531.03996
argument of perihelion (°)153.85320
ascending node (°)220.51874
inclination (°)1.17852
eccentricity0.0845832
perihelion distance (AU)2.6200717
Tisserand w.r.t. Jupiter3.3
ΔV w.r.t. Earth (km/sec)10.1
semimajor axis (AU)2.8621626
mean anomaly (°)339.81178
mean daily motion (°/day)0.20354590
aphelion distance (AU)3.104
period (years)4.84
P-vector [x]0.96864426
P-vector [y]0.22419306
P-vector [z]0.10707837
Q-vector [x]-0.24809221
Q-vector [y]0.89598098
Q-vector [z]0.36833182
absolute magnitude14.81
phase slope0.15
uncertainty0
referenceMPEC 2024-A48
observations used1472
oppositions19
arc length (days)8859
first opposition used1999
last opposition used2023
residual rms (arc-secs)0.68
perturbers coarse indicatorM-v
perturbers precise indicator003Ek
first observation date used1999-09-05.0
last observation date used2023-12-07.0
computer nameMPCLINUX
JD of orbit computation2456966.838235
perihelion JD uncertainty (days)1.1056E-04
argument of perihelion uncertainty (°)1.7285E-04
ascending node uncertainty (°)1.7143E-04
inclination uncertainty (°)4.1621E-06
eccentricity uncertainty 3.9233E-08
perihelion distance uncertainty (AU)1.1609E-07
Minimum Orbit Intersection Distances (in AU)
for orbit epoch: 2460200.5, reference: E2024-A48
Mercury2.26727
Venus1.89641
Earth1.61993
Mars1.18396
Jupiter2.3336
Saturn6.2059
Uranus15.3688
Neptune27.2051

Observations

1491 total observations over interval: 1999 09 05.38622 – 2023 12 07.097669
These data are available for download (format description).

Date (UT) J2000 RA J2000 Dec Magn Location Ref
1999 09 05.38622 01 24 31.25 +09 52 58.0 19.2 R 699 – Lowell Observatory-LONEOS MPS 9028
1999 09 05.41690 01 24 30.74 +09 52 53.4   699 – Lowell Observatory-LONEOS MPS 9028
1999 09 05.44759 01 24 30.10 +09 52 49.4   699 – Lowell Observatory-LONEOS MPS 9028
1999 09 18.37375 01 18 54.63 +09 17 15.6 18.7 R 703 – Catalina Sky Survey MPS 9028
1999 09 18.38049 01 18 54.24 +09 17 13.9 18.8 R 703 – Catalina Sky Survey MPS 9028
1999 09 18.38720 01 18 54.05 +09 17 12.3 18.7 R 703 – Catalina Sky Survey MPS 9028
1999 09 18.39395 01 18 53.77 +09 17 10.8 18.7 R 703 – Catalina Sky Survey MPS 9028
1999 10 02.27406 01 09 26.52 +08 15 38.5 18.3 R 703 – Catalina Sky Survey MPS 9028
1999 10 02.28630 01 09 25.89 +08 15 34.8 18.1 R 703 – Catalina Sky Survey MPS 9028
1999 10 02.29858 01 09 25.31 +08 15 31.3 18.0 R 703 – Catalina Sky Survey MPS 9028
1999 10 02.31086 01 09 24.63 +08 15 27.0 18.3 R 703 – Catalina Sky Survey MPS 9028
1999 10 04.29813 01 07 52.30 +08 05 14.9 18.5   704 – Lincoln Laboratory ETS, New Mexico MPS 9028
1999 10 04.31159 01 07 51.70 +08 05 12.2 19.0   704 – Lincoln Laboratory ETS, New Mexico MPS 9028
1999 10 04.32496 01 07 51.07 +08 05 06.6 18.6   704 – Lincoln Laboratory ETS, New Mexico MPS 9028
1999 10 04.33837 01 07 50.36 +08 05 03.4 18.7   704 – Lincoln Laboratory ETS, New Mexico MPS 9028
1999 10 04.35176 01 07 49.79 +08 04 59.7 19.0   704 – Lincoln Laboratory ETS, New Mexico MPS 9028
1999 10 07.31409 01 05 29.41 +07 49 22.7 17.8   704 – Lincoln Laboratory ETS, New Mexico MPS 12131
1999 10 07.32453 01 05 28.91 +07 49 19.0 18.3   704 – Lincoln Laboratory ETS, New Mexico MPS 12131
1999 10 07.33528 01 05 28.34 +07 49 15.8 18.4   704 – Lincoln Laboratory ETS, New Mexico MPS 12131
1999 10 07.34581 01 05 27.79 +07 49 12.2 18.7   704 – Lincoln Laboratory ETS, New Mexico MPS 12131
1999 10 07.35648 01 05 27.31 +07 49 09.3 18.5   704 – Lincoln Laboratory ETS, New Mexico MPS 12131
1999 10 08.25889 01 04 44.38 +07 44 19.6 17.3 R 683 – Goodricke-Pigott Observatory, Tucson MPS 9028
1999 10 08.28192 01 04 43.24 +07 44 11.9 17.3 R 683 – Goodricke-Pigott Observatory, Tucson MPS 9028
1999 10 08.30499 01 04 42.10 +07 44 04.2 17.0 R 683 – Goodricke-Pigott Observatory, Tucson MPS 9028
1999 10 09.28369 01 03 55.08 +07 38 48.4 18.7   704 – Lincoln Laboratory ETS, New Mexico MPS 12131
1999 10 09.29706 01 03 54.46 +07 38 44.0 19.1   704 – Lincoln Laboratory ETS, New Mexico MPS 12131
1999 10 09.31008 01 03 53.78 +07 38 40.1 18.9   704 – Lincoln Laboratory ETS, New Mexico MPS 12131
1999 10 09.32325 01 03 53.09 +07 38 35.4 19.1   704 – Lincoln Laboratory ETS, New Mexico MPS 12131
1999 10 09.33691 01 03 52.43 +07 38 31.0 19.0   704 – Lincoln Laboratory ETS, New Mexico MPS 12131
1999 10 15.41060 00 59 02.18 +07 05 37.1 18.1   704 – Lincoln Laboratory ETS, New Mexico MPS 12131
1999 10 15.42607 00 59 01.43 +07 05 32.3 18.7   704 – Lincoln Laboratory ETS, New Mexico MPS 12131
1999 10 15.44139 00 59 00.78 +07 05 27.8 18.9   704 – Lincoln Laboratory ETS, New Mexico MPS 12131
1999 10 15.45674 00 58 59.94 +07 05 23.3 19.7   704 – Lincoln Laboratory ETS, New Mexico MPS 12131
1999 10 15.47209 00 58 59.27 +07 05 18.8 19.1   704 – Lincoln Laboratory ETS, New Mexico MPS 12131
1999 10 19.19138 00 56 07.28 +06 45 25.4 18.6   704 – Lincoln Laboratory ETS, New Mexico MPS 12131
1999 10 19.20518 00 56 06.67 +06 45 21.2 18.8   704 – Lincoln Laboratory ETS, New Mexico MPS 12131
1999 10 19.21891 00 56 06.01 +06 45 17.2 18.8   704 – Lincoln Laboratory ETS, New Mexico MPS 12131
1999 10 19.23272 00 56 05.36 +06 45 12.3 18.7   704 – Lincoln Laboratory ETS, New Mexico MPS 12131
1999 10 19.24651 00 56 04.68 +06 45 08.5 18.8   704 – Lincoln Laboratory ETS, New Mexico MPS 12131
1999 11 01.15350 00 47 23.78 +05 43 09.8 18.4 R 703 – Catalina Sky Survey MPS 9028
1999 11 01.16551 00 47 23.35 +05 43 07.3 18.1 R 703 – Catalina Sky Survey MPS 9028
1999 11 01.17754 00 47 22.96 +05 43 04.1 18.6 R 703 – Catalina Sky Survey MPS 9028
1999 11 01.18955 00 47 22.53 +05 43 00.9 18.6 R 703 – Catalina Sky Survey MPS 9028
1999 11 05.24337 00 45 14.39 +05 27 05.1 19.1   704 – Lincoln Laboratory ETS, New Mexico MPS 9028
1999 11 05.25966 00 45 13.86 +05 27 02.7 19.4   704 – Lincoln Laboratory ETS, New Mexico MPS 9028
1999 11 05.27588 00 45 13.36 +05 26 57.7 19.3   704 – Lincoln Laboratory ETS, New Mexico MPS 9028
1999 11 05.29207 00 45 12.90 +05 26 54.0 19.7   704 – Lincoln Laboratory ETS, New Mexico MPS 9028
1999 11 05.30830 00 45 12.33 +05 26 51.1 19.0   704 – Lincoln Laboratory ETS, New Mexico MPS 9028
1999 11 09.07771 00 43 33.13 +05 14 01.1 18.3   704 – Lincoln Laboratory ETS, New Mexico MPS 9028
1999 11 09.09209 00 43 32.77 +05 13 58.4 18.6   704 – Lincoln Laboratory ETS, New Mexico MPS 9028
1999 11 09.10647 00 43 32.44 +05 13 55.5 18.9   704 – Lincoln Laboratory ETS, New Mexico MPS 9028
1999 11 09.12086 00 43 32.11 +05 13 52.6 18.7   704 – Lincoln Laboratory ETS, New Mexico MPS 9028
1999 11 09.13527 00 43 31.61 +05 13 50.2 18.4   704 – Lincoln Laboratory ETS, New Mexico MPS 9028
1999 11 12.14867 00 42 26.51 +05 05 07.0 18.9   704 – Lincoln Laboratory ETS, New Mexico MPS 9028
1999 11 12.16344 00 42 26.13 +05 05 05.2 19.5   704 – Lincoln Laboratory ETS, New Mexico MPS 9028
1999 11 12.17787 00 42 25.76 +05 05 03.7 19.8   704 – Lincoln Laboratory ETS, New Mexico MPS 9028
1999 11 12.19231 00 42 25.52 +05 04 59.8 19.4   704 – Lincoln Laboratory ETS, New Mexico MPS 9028
1999 11 12.20676 00 42 25.16 +05 04 58.3 19.4   704 – Lincoln Laboratory ETS, New Mexico MPS 9028
1999 12 03.06549 00 41 06.62 +04 44 41.2 19.8 V 691 – Steward Observatory, Kitt Peak-Spacewatch MPS 9028
1999 12 03.08647 00 41 06.85 +04 44 42.2 19.6 V 691 – Steward Observatory, Kitt Peak-Spacewatch MPS 9028
1999 12 03.10766 00 41 07.07 +04 44 43.0 19.8 V 691 – Steward Observatory, Kitt Peak-Spacewatch MPS 9028
1999 12 07.07190 00 42 05.12 +04 48 48.8 19.2   704 – Lincoln Laboratory ETS, New Mexico MPS 9028
1999 12 07.12053 00 42 05.96 +04 48 51.9 19.9   704 – Lincoln Laboratory ETS, New Mexico MPS 9028
1999 12 07.13735 00 42 06.23 +04 48 53.2 19.0   704 – Lincoln Laboratory ETS, New Mexico MPS 9028
1999 12 08.06538 00 42 23.27 +04 50 12.6 19.5 V 691 – Steward Observatory, Kitt Peak-Spacewatch MPS 9028
1999 12 08.08660 00 42 23.57 +04 50 14.2 19.5 V 691 – Steward Observatory, Kitt Peak-Spacewatch MPS 9028
1999 12 08.10780 00 42 23.98 +04 50 16.4 19.7 V 691 – Steward Observatory, Kitt Peak-Spacewatch MPS 9028
2000 12 30.36878 08 31 11.95 +17 12 12.4 19.1   704 – Lincoln Laboratory ETS, New Mexico MPS 25685
2000 12 30.38400 08 31 11.29 +17 12 13.0 19.3   704 – Lincoln Laboratory ETS, New Mexico MPS 25685
2000 12 30.40030 08 31 10.65 +17 12 14.6 19.4   704 – Lincoln Laboratory ETS, New Mexico MPS 25685
2000 12 30.41529 08 31 09.93 +17 12 17.5 19.3   704 – Lincoln Laboratory ETS, New Mexico MPS 25685
2000 12 30.43026 08 31 09.36 +17 12 19.2 19.8   704 – Lincoln Laboratory ETS, New Mexico MPS 25685
2001 01 20.30489 08 13 38.93 +18 06 46.4 18.7   704 – Lincoln Laboratory ETS, New Mexico MPS 25685
2001 01 20.31980 08 13 38.07 +18 06 49.1 19.5   704 – Lincoln Laboratory ETS, New Mexico MPS 25685
2001 01 20.33472 08 13 37.16 +18 06 50.5 19.5   704 – Lincoln Laboratory ETS, New Mexico MPS 25685
2001 01 20.34964 08 13 36.40 +18 06 53.4 19.5   704 – Lincoln Laboratory ETS, New Mexico MPS 25685
2001 01 20.36464 08 13 35.59 +18 06 55.5 19.2   704 – Lincoln Laboratory ETS, New Mexico MPS 25685
2001 01 21.30085 08 12 43.98 +18 09 37.9 18.4   704 – Lincoln Laboratory ETS, New Mexico MPS 25685
2001 01 21.30881 08 12 43.54 +18 09 38.9 18.9   704 – Lincoln Laboratory ETS, New Mexico MPS 25685
2001 01 21.31601 08 12 43.08 +18 09 40.1 18.9   704 – Lincoln Laboratory ETS, New Mexico MPS 25685
2001 01 21.32400 08 12 42.63 +18 09 42.0 19.1   704 – Lincoln Laboratory ETS, New Mexico MPS 25685
2001 01 21.33121 08 12 42.22 +18 09 42.6 18.5   704 – Lincoln Laboratory ETS, New Mexico MPS 25685
2001 01 21.33916 08 12 41.77 +18 09 43.8 19.2   704 – Lincoln Laboratory ETS, New Mexico MPS 25685
2001 01 21.34636 08 12 41.36 +18 09 45.7 19.1   704 – Lincoln Laboratory ETS, New Mexico MPS 25685
